Jadwal Kapal Pelni AWU Terbaru 2019

Jadwal Keberangkatan Kapal Pelni AWUUpdate Info Jadwal Kapal Pelni KM Awu Terbaru Bulan Ini, Bagi anda yang hendak melakukan perjalan dengan tujaun rute kapal pelni ke Tanjung Perak Surabaya – Kumai – Benoa Denpasar – Sape Bima – Waingapu Suma Timur – Ende – Sabu – Rote – Tenau Kupang – Larantuka Flores Timur – Kalabahi, anda bisa menggunakan kapal pelni km Awu, di karenakan tujuan rute pelayaran kapal pelni km awu meliputi pelabuhan Tanjung Perak Surabaya – Kumai – Benoa Denpasar – Sape Bima – Waingapu Suma Timur – Ende – Sabu – Rote – Tenau Kupang – Larantuka Flores Timur – Kalabahi.

Nah, bagi anda yang sedang akan berkunjung maupun pulang kampung atau mudik dengan tujuan Tanjung Perak Surabaya – Kumai – Benoa Denpasar – Sape Bima – Waingapu Suma Timur – Ende – Sabu – Rote – Tenau Kupang – Larantuka Flores Timur – Kalabahi, saya akan memberikan sedikit informasi terupdate mengenai jadwal dan harga tiket kapal pelni awu terbaru bulan ini, sebelum saya membahas lebih jauh mengenai jadwal keberangkatan kapal pelni awu dengan tujuan rute pelayaran ke Tanjung Perak Surabaya – Kumai – Benoa Denpasar – Sape Bima – Waingapu Suma Timur – Ende – Sabu – Rote – Tenau Kupang – Larantuka Flores Timur – Kalabahi.

Harga Tiket & Jadwal Kapal KM Awu Bulan Ini :

jadwal kapal pelni awu terbaru bulan ini 2018 2019 2020 2021 2022 2023 2024 2025
Jadwal Kapal Awu Terbaru
#Hargatiket.info

Ada baiknyaanda sedikit menyimak mengenai informasi masi seputar jadwal kapal pelni awu, perlu anda ketahui untuk pemesana tiket kapal pelni saat ini sudah bisa di lakukan secara online, jadi anda duah tidak perlu repot lagi untuk datang langsung ke palbuhan hanya untuk membeli tiket kapal pelni, tiket online kapal pelni ini sudah bisa anda pesan jauh jauh hari sebelum jadwal hari h keberangktan anda dengan tujuan pelabuhan Tanjung Perak Surabaya – Kumai – Benoa Denpasar – Sape Bima – Waingapu Suma Timur – Ende – Sabu – Rote – Tenau Kupang – Larantuka Flores Timur – Kalabahi ini.

Dengan berkembangnya jaman seperti saat ini pihak operator kapal pelni memberikan trobosan inovasi terbaru mengenai berbagai fasilitas dan pelayanan calon penumpang kapal pelni agar merasa nyaman dan aman di saat melakukan perjalan ke tempat tujuan para penumpang kapal pelni, nah untuk lebih jelas dan detailnya mengenai jadwal kapal awu terbaru dan terupdate bulan ini, anda bisa melihat tabel di bawah ini sebagai berikut.

Jadwal Kapal Pelni Awu Terbaru

#Jadwal Kapal Awu

Jadwal Kapal Awu Terbaru

  • TANJUNG PERAK [SURABAYA] – KUMAI
  • TANJUNG PERAK [SURABAYA] – BENOA/DENPASAR – SAPE [BIMA]- WAINGAPU [SUMBA TIMUR] – ENDE – SABU – ROTE – TENAU [KUPANG] – LARANTUKA [FLORES TIMUR] – KALABAHI
Update Terbaru  Harga Tiket Dan Jadwal Kapal Pelni Tatamailau Terbaru 2019
BERANGKAT DARI PELABUHANTIBA DI PELABUHANWAKTU KEBERANGKATAN KAPAL PELNI AWUWAKTU TIBA KAPAL PELNI AWU
SAPE [BIMA]BENOA [DENPASAR]05-11-2018 | 11:0006-11-2018 | 09:00
BENOA [DENPASAR]TANJUNG PERAK [SURABAYA]06-11-2018 | 11:0007-11-2018 | 13:00
TANJUNG PERAK [SURABAYA]KUMAI [KOTAWARINGIN BARAT]07-11-2018 | 17:0008-11-2018 | 19:00
KUMAI [KOTAWARINGIN BARAT]TANJUNG PERAK [SURABAYA]09-11-2018 | 21:0010-11-2018 | 23:00
TANJUNG PERAK [SURABAYA]BENOA [DENPASAR]11-11-2018 | 09:0012-11-2018 | 10:00
BENOA [DENPASAR]SAPE [BIMA]12-11-2018 | 15:0013-11-2018 | 11:00
SAPE [BIMA]WAINGAPU [SUMBA TIMUR]13-11-2018 | 14:0014-11-2018 | 04:00
WAINGAPU [SUMBA TIMUR]ENDE14-11-2018 | 06:0014-11-2018 | 15:00
ENDESABU14-11-2018 | 16:0015-11-2018 | 01:00
SABUROTE15-11-2018 | 02:0015-11-2018 | 09:00
ROTETENAU [KUPANG]15-11-2018 | 10:0015-11-2018 | 15:00
TENAU [KUPANG]LARANTUKA [FLORES TIMUR]15-11-2018 | 19:0016-11-2018 | 06:00
LARANTUKA [FLORES TIMUR]KALABAHI16-11-2018 | 07:0016-11-2018 | 16:00
KALABAHITENAU [KUPANG]16-11-2018 | 17:0017-11-2018 | 06:00
TENAU [KUPANG]ROTE17-11-2018 | 09:0017-11-2018 | 14:00
ROTESABU17-11-2018 | 15:0017-11-2018 | 21:00
SABUENDE17-11-2018 | 22:0018-11-2018 | 07:00
ENDEWAINGAPU [SUMBA TIMUR]18-11-2018 | 08:0018-11-2018 | 17:00
WAINGAPU [SUMBA TIMUR]SAPE [BIMA]18-11-2018 | 19:0019-11-2018 | 09:00
SAPE [BIMA]BENOA [DENPASAR]19-11-2018 | 11:0020-11-2018 | 09:00
BENOA [DENPASAR]TANJUNG PERAK [SURABAYA]20-11-2018 | 11:0021-11-2018 | 13:00
TANJUNG PERAK [SURABAYA]KUMAI [KOTAWARINGIN BARAT]21-11-2018 | 17:0022-11-2018 | 19:00
KUMAI [KOTAWARINGIN BARAT]TANJUNG PERAK [SURABAYA]23-11-2018 | 21:0024-11-2018 | 23:00
TANJUNG PERAK [SURABAYA]BENOA [DENPASAR]25-11-2018 | 09:0026-11-2018 | 10:00
BENOA [DENPASAR]SAPE [BIMA]26-11-2018 | 15:0027-11-2018 | 11:00
SAPE [BIMA]WAINGAPU [SUMBA TIMUR]27-11-2018 | 14:0028-11-2018 | 04:00
WAINGAPU [SUMBA TIMUR]ENDE28-11-2018 | 06:0028-11-2018 | 15:00
ENDESABU28-11-2018 | 16:0029-11-2018 | 01:00
SABUROTE29-11-2018 | 02:0029-11-2018 | 09:00
ROTETENAU [KUPANG]29-11-2018 | 10:0029-11-2018 | 15:00
TENAU [KUPANG]LARANTUKA [FLORES TIMUR]29-11-2018 | 19:0030-11-2018 | 06:00
LARANTUKA [FLORES TIMUR]KALABAHI30-11-2018 | 07:0030-11-2018 | 16:00
KALABAHITENAU [KUPANG]30-11-2018 | 17:0001-12-2018 | 06:00
TENAU [KUPANG]ROTE01-12-2018 | 09:0001-12-2018 | 14:00
ROTESABU01-12-2018 | 15:0001-12-2018 | 21:00
SABUENDE01-12-2018 | 22:0002-12-2018 | 07:00
ENDEWAINGAPU [SUMBA TIMUR]02-12-2018 | 08:0002-12-2018 | 17:00
WAINGAPU [SUMBA TIMUR]SAPE [BIMA]02-12-2018 | 19:0003-12-2018 | 09:00
SAPE [BIMA]BENOA [DENPASAR]03-12-2018 | 11:0004-12-2018 | 09:00
BENOA [DENPASAR]TANJUNG PERAK [SURABAYA]04-12-2018 | 11:0005-12-2018 | 13:00
TANJUNG PERAK [SURABAYA]KUMAI [KOTAWARINGIN BARAT]05-12-2018 | 17:0006-12-2018 | 19:00
BERANGKAT DARI PELABUHANTIBA DI PELABUHANWAKTU KEBERANGKATAN KAPAL PELNI AWUWAKTU TIBA KAPAL PELNI AWU
BENOA [DENPASAR]SAPE [BIMA]22-01-2019 | 13:0023-01-2019 | 12:00
SAPE [BIMA]WAINGAPU [SUMBA TIMUR]23-01-2019 | 14:0024-01-2019 | 04:00
WAINGAPU [SUMBA TIMUR]ENDE24-01-2019 | 06:0024-01-2019 | 15:00
ENDESABU24-01-2019 | 16:0025-01-2019 | 01:00
SABUROTE25-01-2019 | 02:0025-01-2019 | 09:00
ROTETENAU [KUPANG]25-01-2019 | 10:0025-01-2019 | 15:00
TENAU [KUPANG]LARANTUKA [FLORES TIMUR]25-01-2019 | 19:0026-01-2019 | 06:00
LARANTUKA [FLORES TIMUR]KALABAHI26-01-2019 | 07:0026-01-2019 | 16:00
KALABAHITENAU [KUPANG]26-01-2019 | 17:0027-01-2019 | 06:00
TENAU [KUPANG]ROTE27-01-2019 | 09:0027-01-2019 | 14:00
ROTESABU27-01-2019 | 15:0027-01-2019 | 21:00
SABUENDE27-01-2019 | 22:0028-01-2019 | 07:00
ENDEWAINGAPU [SUMBA TIMUR]28-01-2019 | 08:0028-01-2019 | 17:00
WAINGAPU [SUMBA TIMUR]SAPE [BIMA]28-01-2019 | 19:0029-01-2019 | 09:00
SAPE [BIMA]BENOA [DENPASAR]29-01-2019 | 11:0030-01-2019 | 09:00
BENOA [DENPASAR]TANJUNG PERAK [SURABAYA]30-01-2019 | 11:0031-01-2019 | 13:00
TANJUNG PERAK [SURABAYA]KUMAI [KOTAWARINGIN BARAT]31-01-2019 | 17:0001-02-2019 | 19:00
KUMAI [KOTAWARINGIN BARAT]TANJUNG PERAK [SURABAYA]02-02-2019 | 21:0003-02-2019 | 23:00
TANJUNG PERAK [SURABAYA]BENOA [DENPASAR]04-02-2019 | 08:0005-02-2019 | 10:00
BENOA [DENPASAR]SAPE [BIMA]05-02-2019 | 13:0006-02-2019 | 12:00
SAPE [BIMA]WAINGAPU [SUMBA TIMUR]06-02-2019 | 14:0007-02-2019 | 04:00
WAINGAPU [SUMBA TIMUR]ENDE07-02-2019 | 06:0007-02-2019 | 15:00
ENDESABU07-02-2019 | 16:0008-02-2019 | 01:00
SABUROTE08-02-2019 | 02:0008-02-2019 | 09:00
ROTETENAU [KUPANG]08-02-2019 | 10:0008-02-2019 | 15:00
TENAU [KUPANG]LARANTUKA [FLORES TIMUR]08-02-2019 | 19:0009-02-2019 | 06:00
LARANTUKA [FLORES TIMUR]KALABAHI09-02-2019 | 07:0009-02-2019 | 16:00
KALABAHITENAU [KUPANG]09-02-2019 | 17:0010-02-2019 | 06:00
TENAU [KUPANG]ROTE10-02-2019 | 09:0010-02-2019 | 14:00
ROTESABU10-02-2019 | 15:0010-02-2019 | 21:00
SABUENDE10-02-2019 | 22:0011-02-2019 | 07:00
ENDEWAINGAPU [SUMBA TIMUR]11-02-2019 | 08:0011-02-2019 | 17:00
WAINGAPU [SUMBA TIMUR]SAPE [BIMA]11-02-2019 | 19:0012-02-2019 | 09:00
SAPE [BIMA]BENOA [DENPASAR]12-02-2019 | 11:0013-02-2019 | 09:00
BENOA [DENPASAR]TANJUNG PERAK [SURABAYA]13-02-2019 | 11:0014-02-2019 | 13:00
TANJUNG PERAK [SURABAYA]KUMAI [KOTAWARINGIN BARAT]14-02-2019 | 17:0015-02-2019 | 19:00
KUMAI [KOTAWARINGIN BARAT]TANJUNG PERAK [SURABAYA]16-02-2019 | 21:0017-02-2019 | 23:00
TANJUNG PERAK [SURABAYA]BENOA [DENPASAR]18-02-2019 | 09:0019-02-2019 | 10:00
BENOA [DENPASAR]SAPE [BIMA]19-02-2019 | 15:0020-02-2019 | 11:00
SAPE [BIMA]WAINGAPU [SUMBA TIMUR]20-02-2019 | 14:0021-02-2019 | 04:00
WAINGAPU [SUMBA TIMUR]ENDE21-02-2019 | 06:0021-02-2019 | 15:00
ENDESABU21-02-2019 | 16:0022-02-2019 | 01:00
SABUROTE22-02-2019 | 02:0022-02-2019 | 09:00
ROTETENAU [KUPANG]22-02-2019 | 10:0022-02-2019 | 15:00
TENAU [KUPANG]LARANTUKA [FLORES TIMUR]22-02-2019 | 19:0023-02-2019 | 06:00
LARANTUKA [FLORES TIMUR]KALABAHI23-02-2019 | 07:0023-02-2019 | 16:00
KALABAHITENAU [KUPANG]23-02-2019 | 17:0024-02-2019 | 06:00
TENAU [KUPANG]ROTE24-02-2019 | 09:0024-02-2019 | 14:00
ROTESABU24-02-2019 | 15:0024-02-2019 | 21:00
SABUENDE24-02-2019 | 22:0025-02-2019 | 07:00
ENDEWAINGAPU [SUMBA TIMUR]25-02-2019 | 08:0025-02-2019 | 17:00
WAINGAPU [SUMBA TIMUR]SAPE [BIMA]25-02-2019 | 19:0026-02-2019 | 09:00
SAPE [BIMA]BENOA [DENPASAR]26-02-2019 | 11:0027-02-2019 | 09:00
BENOA [DENPASAR]TANJUNG PERAK [SURABAYA]27-02-2019 | 11:0028-02-2019 | 13:00
TANJUNG PERAK [SURABAYA]KUMAI [KOTAWARINGIN BARAT]28-02-2019 | 17:0001-03-2019 | 19:00
KUMAI [KOTAWARINGIN BARAT]TANJUNG PERAK [SURABAYA]02-03-2019 | 21:0003-03-2019 | 23:00
TANJUNG PERAK [SURABAYA]BENOA [DENPASAR]04-03-2019 | 09:0005-03-2019 | 10:00
BENOA [DENPASAR]SAPE [BIMA]05-03-2019 | 15:0006-03-2019 | 11:00
SAPE [BIMA]WAINGAPU [SUMBA TIMUR]06-03-2019 | 14:0007-03-2019 | 04:00
WAINGAPU [SUMBA TIMUR]ENDE07-03-2019 | 06:0007-03-2019 | 15:00
ENDESABU07-03-2019 | 16:0008-03-2019 | 01:00
SABUROTE08-03-2019 | 02:0008-03-2019 | 09:00
ROTETENAU [KUPANG]08-03-2019 | 10:0008-03-2019 | 15:00
TENAU [KUPANG]LARANTUKA [FLORES TIMUR]08-03-2019 | 19:0009-03-2019 | 06:00
LARANTUKA [FLORES TIMUR]KALABAHI09-03-2019 | 07:0009-03-2019 | 16:00
KALABAHITENAU [KUPANG]09-03-2019 | 17:0010-03-2019 | 06:00
TENAU [KUPANG]ROTE10-03-2019 | 09:0010-03-2019 | 14:00
ROTESABU10-03-2019 | 15:0010-03-2019 | 21:00
SABUENDE10-03-2019 | 22:0011-03-2019 | 07:00
ENDEWAINGAPU [SUMBA TIMUR]11-03-2019 | 08:0011-03-2019 | 17:00
WAINGAPU [SUMBA TIMUR]SAPE [BIMA]11-03-2019 | 19:0012-03-2019 | 09:00
SAPE [BIMA]BENOA [DENPASAR]12-03-2019 | 11:0013-03-2019 | 09:00
BENOA [DENPASAR]TANJUNG PERAK [SURABAYA]13-03-2019 | 11:0014-03-2019 | 13:00
TANJUNG PERAK [SURABAYA]KUMAI [KOTAWARINGIN BARAT]14-03-2019 | 17:0015-03-2019 | 19:00
Update Terbaru  Jadwal Kapal Pelni Labobar Terbaru 2019

Perlu Anda Ketahui Jadwal KM AWU Bisa Berubah Sewaktu-waktu, Untuk Info Jadwal Anda Bisa Cek Di SINI [ Jadwal Pelni ]

Jadwal Kapal AWU

Nah, itu tadi sedikit informasih mengenai jadwal keberangaktan kapal km awu terbaru, semoga dengan adanya informasi ini, dapat bermanfaat bagi anda yang sedang bingung mencari informasi jadwal kapal pelni terbaru bulan ini.

Jadwal Kapal Awu Januari 2019 | Jadwal KM Awu Februari 2019 | Jadwal Kapal Motor Awu Maret 2019 | Jadwal Kapal Pelni Awu April 2019 | Jadwal Kapal Laut Awu Mei 2019 | Jadwal Keberangkatan Kapal Awu Juni 2019 | Jadwal Keberangkatan KM Awu Juli 2019 | Jadwal Keberangkatan Kapal Motor Awu Agustus 2019 | Jadwal Keberangkatan Kapal Pelni Awu September 2019 | Jadwal Keberangkatan Kapal Laut Awu Oktober 2019 | Jadwal Terbaru Kapal Awu November Tahun 2019 | Jadwal Terbaru Kapal Pelni Awu Desember Tahun 2019bisa memperoleh informasi yang anda cari tentang “Jadwal Terbaru Kapal Pelni

Pencarian Terkait :

  • Jadwal Kapal Pelni AWU Januari 2019
  • Jadwal Kapal Pelni AWU Februari 2019
  • Jadwal Kapal Pelni AWU Maret 2019
  • Jadwal Kapal Pelni AWU April 2019
  • Jadwal Kapal Pelni AWU Mei 2019
  • Jadwal Kapal Pelni AWU Juni 2019
  • Jadwal Kapal Pelni AWU Juli 2019
  • Jadwal Kapal Pelni AWU Agustus 2019
  • Jadwal Kapal Pelni AWU September 2019
  • Jadwal Kapal Pelni AWU Oktober 2019
  • Jadwal Kapal Pelni AWU November 2019
  • Jadwal Kapal Pelni AWU Desember 2019
Source :

jadwal kapal awu mei 2019,jadwal kapal awu surabaya ende Desember 2018,jatwal kapal pelni surabaya kumai januari 2019